FW0403 Weather Reports


time (UTC)temp
F
wind
direction
speed
knots
gust
knots
rain 1hr
in
rain 24hr
in
rain mn
in
humidity
%
barometer
mb
20260502182611 72 332 10.4 17.4 0.00 0.87 0.00 50 1018.6
20260502181441 71 338 11.3 19.1 0.00 0.87 0.00 51 1018.9
20260502180929 71 12 11.3 19.1 0.00 0.87 0.00 51 1018.9
20260502180414 71 20 11.3 19.1 0.00 0.87 0.00 51 1018.9
20260502170113 69 46 10.4 17.4 0.00 0.87 0.00 62 1019.4
20260502163904 68 19 11.3 16.5 0.00 0.87 0.00 64 1019.3
20260502163400 68 7 10.4 18.2 0.00 0.89 0.00 64 1019.1
20260502162235 67 93 11.3 18.2 0.00 0.94 0.00 65 1019.1
20260502161722 68 32 10.4 17.4 0.00 0.94 0.00 66 1019.1
20260502161220 67 13 11.3 20.9 0.00 0.94 0.00 66 1019.1
20260502160710 67 73 12.2 20.9 0.00 0.94 0.00 67 1019.1
20260502160209 67 24 12.2 20.9 0.00 0.94 0.00 68 1018.8
20260502151917 65 42 12.2 20.0 0.00 0.95 0.00 72 1018.8
20260502151401 65 11 13.0 20.0 0.00 0.95 0.00 73 1018.8
20260502150908 65 21 13.0 20.0 0.00 1.00 0.00 72 1018.7
20260502130143 61 47 11.3 18.2 0.00 1.19 0.00 75 1017.5
20260502123503 60 2 8.7 16.5 0.00 1.19 0.00 78 1017.3
20260502122954 60 338 9.6 16.5 0.00 1.19 0.00 78 1017.2
20260502122441 59 38 9.6 17.4 0.00 1.19 0.00 79 1017.0
20260502121947 59 2 9.6 17.4 0.00 1.19 0.00 79 1016.9
20260502120201 59 48 8.7 16.5 0.00 1.19 0.00 79 1016.7
20260502115705 59 332 8.7 14.8 0.00 1.19 0.00 79 1016.7
20260502114031 59 113 8.7 14.8 0.00 1.19 0.00 78 1016.2
20260502113529 59 19 8.7 17.4 0.00 1.19 0.00 78 1016.0
20260502113029 59 37 8.7 17.4 0.00 1.19 0.00 77 1016.1
20260502112507 59 84 9.6 17.4 0.00 1.19 0.00 76 1016.0
20260502111949 58 30 9.6 17.4 0.00 1.19 0.00 78 1015.7
20260502111443 58 33 9.6 14.8 0.00 1.19 0.00 78 1015.8
20260502110328 58 48 7.8 13.9 0.00 1.19 0.00 80 1015.6
20260502105156 58 21 7.8 13.9 0.00 1.19 0.00 80 1015.5
20260502103423 58 38 6.1 13.0 0.00 1.19 0.00 81 1015.4
20260502102924 59 88 7.8 13.0 0.00 1.19 0.00 81 1015.5
20260502102416 59 57 7.8 13.0 0.00 1.19 0.00 81 1015.3
20260502101917 59 51 7.0 14.8 0.00 1.19 0.00 82 1015.2
20260502100746 59 23 7.0 14.8 0.00 1.19 0.00 82 1015.0
20260502100226 59 35 7.0 13.9 0.00 1.19 0.00 82 1014.8
20260502091057 60 40 8.7 15.6 0.00 1.19 0.00 82 1014.0
20260502090540 60 357 8.7 16.5 0.00 1.19 0.00 82 1013.9
20260502071450 60 2 12.2 20.0 0.00 1.19 0.00 83 1013.7
20260502070932 60 7 11.3 19.1 0.00 1.19 0.00 83 1013.7
20260502070434 60 18 11.3 18.2 0.00 1.19 0.00 83 1013.7
20260502065923 60 2 11.3 19.1 0.00 1.19 0.00 83 1013.7
20260502065404 60 2 10.4 19.1 0.00 1.19 0.00 83 1013.7
20260502064858 60 44 10.4 20.0 0.00 1.19 0.00 83 1013.8
20260502064401 60 37 12.2 20.0 0.00 1.19 0.00 83 1013.6
20260502063903 60 34 11.3 20.0 0.00 1.19 0.00 84 1013.8
20260502063355 60 25 10.4 20.0 0.00 1.19 0.00 84 1013.8
20260502062845 60 42 11.3 19.1 0.00 1.19 0.00 84 1013.9
20260502062340 60 57 13.0 19.1 0.00 1.19 0.00 83 1013.8
20260502061820 60 357 12.2 23.5 0.00 1.19 0.00 84 1013.9
20260502061257 60 357 12.2 23.5 0.00 1.19 0.00 84 1013.8
20260502060744 60 33 13.9 24.3 0.00 1.19 0.00 83 1013.6
20260502060224 60 21 13.9 24.3 0.00 1.19 0.00 83 1013.7
20260502055713 60 53 13.0 24.3 0.00 1.19 0.00 84 1013.6
20260502055210 60 137 13.0 24.3 0.00 1.19 0.00 84 1013.5
20260502054714 60 21 12.2 20.9 0.00 1.19 0.00 84 1013.4
20260502054204 60 24 12.2 20.9 0.00 1.19 0.00 84 1013.4
20260502053038 60 36 12.2 20.9 0.00 1.19 0.00 85 1013.5
20260502052516 61 26 13.0 20.9 0.00 1.19 0.00 85 1013.3
20260502052005 61 46 11.3 20.9 0.00 1.19 0.00 85 1013.4
20260502051445 61 40 0.0 20.9 0.00 1.19 0.00 85 1013.5
20260502050938 61 15 13.0 20.9 0.00 1.19 0.00 85 1013.6
20260502050421 61 332 11.3 20.9 0.00 1.19 0.00 85 1013.6
20260502045913 61 38 11.3 20.9 0.00 1.19 1.19 85 1013.8
20260502045351 61 68 12.2 20.9 0.00 1.19 1.19 85 1013.7
20260502044851 61 24 11.3 20.9 0.04 1.19 1.19 85 1013.6
20260502044340 61 17 12.2 19.1 0.05 1.19 1.19 86 1013.6
20260502043840 61 26 12.2 19.1 0.05 1.19 1.19 86 1013.7
20260502043343 61 22 9.6 17.4 0.00 1.19 1.19 86 1013.7
20260502042219 62 48 8.7 16.5 0.00 1.17 1.17 86 1013.3
20260502041715 62 32 7.8 15.6 0.00 1.17 1.17 86 1013.2
20260502041203 62 42 8.7 15.6 0.00 1.17 1.17 86 1013.7
20260502040642 62 323 9.6 17.4 0.00 1.17 1.17 86 1013.7
20260502040121 63 7 8.7 17.4 0.00 1.17 1.17 86 1013.3
20260502035627 63 39 9.6 17.4 0.00 1.17 1.17 86 1013.1
20260502035120 63 16 10.4 17.4 0.00 1.17 1.17 86 1013.0
20260502033952 63 21 9.6 16.5 0.06 1.17 1.17 87 1012.7
20260502033436 63 24 9.6 16.5 0.07 1.17 1.17 86 1012.8
20260502032921 63 2 9.6 16.5 0.07 1.16 1.16 86 1012.7
20260502032416 63 15 10.4 15.6 0.16 1.16 1.16 86 1012.3
20260502031220 63 12 8.7 15.6 0.00 1.13 1.13 87 1012.4
20260502030031 63 25 9.6 17.4 0.05 1.12 1.12 86 1012.4
20260502025535 63 319 8.7 17.4 0.08 1.12 1.12 86 1012.2
20260502025020 64 26 7.8 17.4 0.13 1.12 1.12 87 1012.2
20260502024521 64 7 7.0 14.8 0.21 1.10 1.10 87 1012.1
20260502024001 64 44 8.7 14.8 0.08 1.09 1.09 87 1012.3
20260502023447 64 57 7.8 13.9 0.08 1.07 1.07 87 1012.3
20260502022935 64 357 7.0 12.2 0.11 1.07 1.07 86 1012.4
20260502022441 64 13 7.0 12.2 0.16 1.07 1.07 86 1011.9
20260502021303 64 26 7.0 13.0 0.10 1.04 1.04 86 1011.8
20260502020809 64 18 7.8 13.9 0.13 1.04 1.04 86 1011.7
20260502020252 64 47 7.8 13.9 0.28 1.03 1.03 86 1011.7
20260502015131 64 17 7.0 15.6 0.29 0.98 0.98 86 1011.6
20260502014613 64 28 7.8 15.6 0.18 0.95 0.95 86 1011.4
20260502014102 64 40 8.7 15.6 0.22 0.94 0.94 85 1011.2
20260502013608 64 20 8.7 18.2 0.16 0.92 0.92 85 1011.0
20260502013108 64 34 9.6 18.2 0.29 0.91 0.91 85 1010.8
20260502012557 64 76 8.7 20.9 0.32 0.88 0.89 85 1010.5
20260502012050 65 340 9.6 20.9 0.14 0.87 0.87 85 1010.6
20260502011552 65 18 11.3 20.9 0.29 0.86 0.86 85 1010.7
20260502011030 65 113 12.2 20.9 0.52 0.83 0.83 85 1010.2
20260502010515 65 14 13.0 25.2 0.00 0.80 0.80 85 1010.2
20260502010018 65 338 15.6 25.2 0.00 0.80 0.80 84 1010.2
20260502005514 65 11 16.5 25.2 0.00 0.80 0.80 84 1009.7
20260502004955 65 33 15.6 25.2 0.00 0.80 0.80 85 1009.3
20260502004434 65 33 15.6 24.3 0.00 0.80 0.80 85 1009.1
20260502003302 66 57 13.0 24.3 0.00 0.80 0.80 85 1008.3
20260502002740 65 38 10.4 22.6 0.00 0.80 0.80 85 1008.2
20260502002234 65 57 11.3 22.6 0.00 0.80 0.80 85 1007.7
20260502001720 65 58 13.0 22.6 0.00 0.80 0.80 85 1007.7
20260502001224 65 50 12.2 20.9 0.00 0.80 0.80 86 1007.7
20260502000720 65 59 11.3 20.9 0.00 0.80 0.80 86 1008.1
20260502000205 65 25 12.2 18.2 0.00 0.80 0.80 86 1008.5
20260501235656 65 37 12.2 21.7 0.00 0.80 0.80 86 1008.3
20260501235143 65 42 12.2 21.7 0.00 0.80 0.80 86 1008.2
20260501234634 65 21 11.3 21.7 0.00 0.80 0.80 86 1007.9
20260501234126 66 44 12.2 21.7 0.00 0.80 0.80 86 1007.9
20260501233615 65 53 13.9 23.5 0.00 0.80 0.80 86 1007.6
20260501233101 65 44 13.9 23.5 0.00 0.80 0.80 86 1007.3
20260501231930 66 31 12.2 24.3 0.04 0.80 0.80 87 1007.7
20260501231419 66 63 12.2 24.3 0.04 0.80 0.80 87 1007.8
20260501230922 66 47 11.3 18.2 0.04 0.80 0.80 87 1007.8
20260501230424 66 38 11.3 18.2 0.05 0.79 0.79 86 1007.8
20260501225908 66 42 11.3 17.4 0.08 0.79 0.79 87 1007.5
20260501225400 67 70 10.4 18.2 0.12 0.79 0.79 87 1007.8
20260501224903 67 46 9.6 18.2 0.06 0.78 0.78 87 1007.9
20260501224342 67 59 9.6 18.2 0.00 0.77 0.77 87 1007.8
20260501223849 68 86 8.7 18.2 0.00 0.77 0.77 87 1008.4
20260501222722 67 51 7.8 19.1 0.00 0.76 0.76 87 1008.7
20260501222214 68 96 9.6 19.1 0.00 0.76 0.76 87 1008.7
20260501221653 68 24 11.3 22.6 0.00 0.76 0.76 87 1008.3
20260501221200 68 46 12.2 22.6 0.00 0.76 0.76 87 1008.0
20260501220704 68 57 13.0 23.5 0.04 0.76 0.76 87 1007.6
20260501215541 68 50 13.9 23.5 0.16 0.76 0.76 87 1007.6
20260501215039 67 47 13.0 23.5 0.31 0.74 0.74 86 1007.4
20260501214523 67 36 10.4 22.6 1.29 0.70 0.71 87 1007.4
20260501214029 67 47 8.7 18.2 0.16 0.66 0.66 86 1009.6
20260501213520 67 20 10.4 18.2 0.16 0.64 0.64 86 1010.0
20260501213007 67 43 11.3 18.2 0.00 0.62 0.62 86 1008.8
20260501211834 67 38 9.6 18.2 0.07 0.62 0.62 86 1008.7
20260501211340 67 63 10.4 18.2 0.10 0.62 0.62 86 1007.8
20260501210217 67 57 9.6 16.5 0.14 0.59 0.59 86 1008.4
20260501205039 68 19 9.6 18.2 0.09 0.57 0.57 86 1008.1
20260501204541 68 14 10.4 19.1 0.09 0.57 0.57 86 1007.9
20260501204037 68 44 11.3 19.1 0.13 0.56 0.56 86 1007.1
20260501200956 68 58 11.3 23.5 0.50 0.44 0.44 85 1007.4
20260501200452 68 28 11.3 23.5 0.00 0.41 0.41 86 1007.2
20260501195936 68 36 12.2 23.5 0.00 0.41 0.41 86 1007.3
20260501195418 68 62 11.3 23.5 0.05 0.41 0.41 86 1007.2
20260501194911 68 63 11.3 16.5 0.09 0.41 0.41 86 1007.3
20260501194352 68 64 11.3 17.4 0.16 0.41 0.41 86 1007.5
20260501193833 68 82 11.3 17.4 0.00 0.39 0.39 86 1007.5
20260501192638 68 11 9.6 16.5 0.04 0.38 0.38 85 1007.7
20260501192127 68 17 8.7 15.6 0.06 0.38 0.38 85 1007.6
20260501191623 68 55 8.7 15.6 0.12 0.38 0.38 85 1007.8
20260501191101 68 39 7.8 20.0 0.20 0.37 0.37 85 1008.1
20260501190544 68 36 7.0 20.0 0.07 0.35 0.36 84 1008.4
20260501190028 68 48 8.7 20.0 0.18 0.35 0.35 84 1008.5
20260501185535 68 32 9.6 20.0 0.00 0.33 0.33 84 1008.3
20260501185021 68 51 9.6 20.9 0.00 0.33 0.33 84 1008.0
20260501184513 68 45 10.4 20.9 0.00 0.33 0.33 84 1007.9
20260501183343 69 57 10.4 20.9 0.00 0.33 0.33 85 1007.7
20260501182845 69 71 10.4 20.0 0.00 0.33 0.33 85 1007.7